Flag for Mexico Weather past 2 weeks in Guadalajara, Jalisco, Mexico

Now
79 °F

Partly sunny.


Feels Like: 79 °F
Forecast: 58 / 84 °F
Wind: 7 mph from Southwest

Location: Don Miguel / Guadalaj

Current Time: Apr 27, 2015 at 12:24:02 PM

Latest Report: Apr 27, 2015 at 11:49 AM


Visibility: 10 mi

Pressure: 30.07 "Hg

Humidity: 32%

Dew point: 46 °F

Location of GuadalajaraLocation

Historic Weather in Guadalajara — Graph

°F

Guadalajara temperature yesterday

Maximum temperature yesterday: 84 °F (at 3:49 PM)
Minimum temperature yesterday: 59 °F (at 4:54 AM)
Average temperature yesterday: 72 °F

Past Weeks' High & Low Weather Summary

 TemperatureHumidityPressure
High88 °F (Apr 21, 3:49 PM)88% (Apr 14, 7:51 AM)30.25 "Hg (Apr 14, 7:51 AM)
Low52 °F (Apr 19, 7:51 AM)14% (Apr 18, 2:48 PM)29.65 "Hg (Apr 20, 3:52 PM)
Average72 °F46%30.01 "Hg
* Reported Apr 12 10:49 AM — Apr 27 10:50 AM, Guadalajara, Weather by CustomWeather, © 2015

Note: Actual official high and low records may vary slightly from our data, if they occured in-between our weather recording intervals... More about our weather records

Advertising

Guadalajara weather history for previous 24 hours

 ConditionsComfort  
Time TempWeatherWind HumidityBarometerVisibility
10:50 AM
Mon, Apr 27
75 °FPartly sunny.No wind44%30.08 "Hg10 mi
9:51 AM66 °FBroken clouds.No wind60%29.75 "Hg10 mi
8:45 AM63 °FBroken clouds.No wind68%30.05 "Hg10 mi
7:51 AM59 °FPartly cloudy.No wind72%30.04 "Hg10 mi
4:46 AM61 °FPassing clouds.No wind68%30.02 "Hg10 mi
1:46 AM66 °FPartly cloudy.No wind52%30.06 "Hg10 mi
12:53 AM68 °FMostly cloudy.8 mph49%29.73 "Hg10 mi
9:46 PM
Sun, Apr 26
72 °FMostly cloudy.5 mph44%29.75 "Hg10 mi
8:50 PM73 °FMore clouds than sun.8 mph38%30.04 "Hg8 mi
7:50 PM75 °FMore clouds than sun.18 mph36%30.02 "Hg8 mi
6:50 PM81 °FMore clouds than sun.15 mph32%29.70 "Hg8 mi
5:46 PM82 °FOvercast.18 mph26%29.99 "Hg10 mi
4:51 PM84 °FOvercast.14 mph25%30.00 "Hg10 mi
3:49 PM84 °FBroken clouds.14 mph20%29.65 "Hg10 mi
2:48 PM82 °FBroken clouds.16 mph21%30.05 "Hg10 mi
1:54 PM82 °FBroken clouds.9 mph26%30.07 "Hg8 mi
12:53 PM81 °FBroken clouds.9 mph28%29.76 "Hg8 mi
Weather by CustomWeather, © 2015

See weather overviewHow to use our weather pages